AAL1817 KPHX-KSAN

Flight info

Callsign AAL1817
Flight time 0h 58m
Altitude 36000
Route FYRBD1 MOHAK J2 HOGGZ LUCKI1
Aircraft A320/M-SDE3FGHIRWY/LB1

Departure

Time 2026-04-26 03:10
Airport Phoenix Sky Harbor International Airport (KPHX)

Arrival

Time 2026-04-26 04:08
Airport San Diego International Airport (KSAN)
Time Latitude Longitude Altitude Speed Heading
2026-04-26 02:52 33.43393 -111.99986 1136 ft 0 kts 85°
2026-04-26 02:58 33.43393 -112.00013 1133 ft 4 kts 107°
2026-04-26 02:58 33.43406 -112.00036 1135 ft 4 kts 165°
2026-04-26 02:58 33.43415 -112.00038 1135 ft 0 kts 179°
2026-04-26 03:04 33.43406 -112.00038 1134 ft 6 kts 179°
2026-04-26 03:04 33.43353 -112.00037 1134 ft 0 kts 179°
2026-04-26 03:05 33.43350 -112.00037 1134 ft 0 kts 179°
2026-04-26 03:05 33.43346 -112.00037 1133 ft 3 kts 179°
2026-04-26 03:05 33.43292 -112.00048 1134 ft 11 kts 195°
2026-04-26 03:05 33.43225 -112.00031 1134 ft 11 kts 124°
2026-04-26 03:06 33.43214 -111.99938 1135 ft 12 kts 91°
2026-04-26 03:06 33.43214 -111.99826 1132 ft 14 kts 89°
2026-04-26 03:06 33.43215 -111.99704 1132 ft 15 kts 91°
2026-04-26 03:06 33.43213 -111.99572 1133 ft 15 kts 90°
2026-04-26 03:07 33.43212 -111.99491 1135 ft 10 kts 90°
2026-04-26 03:07 33.43212 -111.99400 1135 ft 12 kts 90°
2026-04-26 03:07 33.43195 -111.99358 1137 ft 0 kts 137°
2026-04-26 03:08 33.43175 -111.99350 1135 ft 9 kts 168°
2026-04-26 03:08 33.43109 -111.99369 1135 ft 7 kts 227°
2026-04-26 03:08 33.43103 -111.99422 1135 ft 0 kts 270°
2026-04-26 03:09 33.43103 -111.99423 1135 ft 1 kts 270°
2026-04-26 03:09 33.43105 -111.99602 1135 ft 57 kts 270°
2026-04-26 03:09 33.43106 -112.00370 1134 ft 124 kts 270°
2026-04-26 03:09 33.43112 -112.01617 1227 ft 167 kts 271°
2026-04-26 03:10 33.43127 -112.03089 1714 ft 186 kts 270°
2026-04-26 03:10 33.43130 -112.04733 2152 ft 212 kts 269°
2026-04-26 03:10 33.43058 -112.06597 2590 ft 236 kts 266°
2026-04-26 03:10 33.42684 -112.08589 3087 ft 255 kts 247°
2026-04-26 03:11 33.41992 -112.10580 3885 ft 261 kts 248°
2026-04-26 03:11 33.41308 -112.12604 4819 ft 263 kts 248°
2026-04-26 03:11 33.40636 -112.14641 5825 ft 262 kts 245°
2026-04-26 03:11 33.39711 -112.16495 6750 ft 260 kts 225°
2026-04-26 03:12 33.38234 -112.17709 7584 ft 262 kts 201°
2026-04-26 03:12 33.36418 -112.18032 8403 ft 271 kts 177°
2026-04-26 03:12 33.34561 -112.17490 9220 ft 278 kts 167°
2026-04-26 03:12 33.32689 -112.16817 9995 ft 282 kts 167°
2026-04-26 03:13 33.30725 -112.16112 10359 ft 302 kts 168°
2026-04-26 03:13 33.28678 -112.15438 10799 ft 312 kts 174°
2026-04-26 03:13 33.26511 -112.15556 11441 ft 308 kts 200°
2026-04-26 03:13 33.24674 -112.16795 12165 ft 306 kts 225°
2026-04-26 03:14 33.23501 -112.18890 12927 ft 308 kts 249°
2026-04-26 03:14 33.23146 -112.21424 13666 ft 313 kts 263°
2026-04-26 03:14 33.22831 -112.23998 14346 ft 312 kts 253°
2026-04-26 03:14 33.22049 -112.26393 15040 ft 311 kts 240°
2026-04-26 03:15 33.20821 -112.28518 15701 ft 312 kts 233°
2026-04-26 03:15 33.19502 -112.30597 16371 ft 314 kts 233°
2026-04-26 03:15 33.18160 -112.32674 17024 ft 316 kts 233°
2026-04-26 03:15 33.16811 -112.34750 17662 ft 319 kts 233°
2026-04-26 03:16 33.15906 -112.36141 18093 ft 320 kts 233°
2026-04-26 03:16 33.14541 -112.38240 18676 ft 322 kts 233°
2026-04-26 03:16 33.13164 -112.40358 19278 ft 323 kts 234°
2026-04-26 03:16 33.11766 -112.42516 19909 ft 325 kts 234°
2026-04-26 03:17 33.10406 -112.44620 20497 ft 326 kts 234°
2026-04-26 03:17 33.08999 -112.46795 21111 ft 327 kts 234°
2026-04-26 03:17 33.07613 -112.48940 21694 ft 328 kts 234°
2026-04-26 03:17 33.06217 -112.51094 22305 ft 329 kts 234°
2026-04-26 03:18 33.04808 -112.53269 22884 ft 331 kts 234°
2026-04-26 03:18 33.03399 -112.55445 23491 ft 333 kts 234°
2026-04-26 03:18 33.01982 -112.57633 23982 ft 334 kts 234°
2026-04-26 03:18 33.00552 -112.59839 24481 ft 336 kts 234°
2026-04-26 03:19 32.99128 -112.62035 24959 ft 337 kts 234°
2026-04-26 03:19 32.97688 -112.64253 25444 ft 338 kts 235°
2026-04-26 03:19 32.96426 -112.66610 25893 ft 339 kts 243°
2026-04-26 03:19 32.95532 -112.69201 26344 ft 341 kts 251°
2026-04-26 03:20 32.95023 -112.71969 26798 ft 344 kts 258°
2026-04-26 03:20 32.94655 -112.74799 27229 ft 346 kts 258°
2026-04-26 03:20 32.94279 -112.77628 27641 ft 347 kts 257°
2026-04-26 03:20 32.93894 -112.80477 28063 ft 349 kts 257°
2026-04-26 03:21 32.93506 -112.83332 28467 ft 350 kts 257°
2026-04-26 03:21 32.93117 -112.86189 28875 ft 352 kts 257°
2026-04-26 03:21 32.92725 -112.89081 29270 ft 354 kts 257°
2026-04-26 03:21 32.92334 -112.91976 29679 ft 355 kts 257°
2026-04-26 03:22 32.91939 -112.94886 30034 ft 357 kts 257°
2026-04-26 03:22 32.91538 -112.97807 30377 ft 358 kts 257°
2026-04-26 03:22 32.91132 -113.00774 30724 ft 359 kts 257°
2026-04-26 03:22 32.90734 -113.03706 31073 ft 360 kts 257°
2026-04-26 03:23 32.90332 -113.06654 31420 ft 361 kts 257°
2026-04-26 03:23 32.89933 -113.09560 31817 ft 360 kts 257°
2026-04-26 03:23 32.89526 -113.12522 32341 ft 357 kts 256°
2026-04-26 03:23 32.89130 -113.15411 32847 ft 354 kts 256°
2026-04-26 03:24 32.88736 -113.18300 33372 ft 351 kts 256°
2026-04-26 03:24 32.88346 -113.21154 33875 ft 348 kts 256°
2026-04-26 03:24 32.87956 -113.23989 34292 ft 346 kts 256°
2026-04-26 03:24 32.87560 -113.26841 34664 ft 344 kts 256°
2026-04-26 03:25 32.87168 -113.29645 35019 ft 343 kts 256°
2026-04-26 03:25 32.86780 -113.32404 35357 ft 342 kts 256°
2026-04-26 03:25 32.86384 -113.35223 35677 ft 342 kts 256°
2026-04-26 03:25 32.85996 -113.38006 35756 ft 337 kts 256°
2026-04-26 03:26 32.85246 -113.43411 35773 ft 329 kts 256°
2026-04-26 03:26 32.84496 -113.48771 35770 ft 328 kts 256°
2026-04-26 03:27 32.83740 -113.54112 35773 ft 328 kts 256°
2026-04-26 03:27 32.82982 -113.59449 35770 ft 327 kts 256°
2026-04-26 03:28 32.82229 -113.64793 35775 ft 327 kts 256°
2026-04-26 03:28 32.81470 -113.70133 35778 ft 327 kts 256°
2026-04-26 03:29 32.80707 -113.75497 35799 ft 327 kts 256°
2026-04-26 03:29 32.79941 -113.80837 35790 ft 328 kts 256°
2026-04-26 03:30 32.79171 -113.86186 35788 ft 328 kts 256°
2026-04-26 03:30 32.78398 -113.91546 35791 ft 329 kts 256°
2026-04-26 03:31 32.77615 -113.96938 35793 ft 329 kts 256°
2026-04-26 03:31 32.77015 -114.02327 35791 ft 338 kts 267°
2026-04-26 03:32 32.77561 -114.07917 35794 ft 340 kts 268°
2026-04-26 03:32 32.77858 -114.13543 35807 ft 338 kts 265°
2026-04-26 03:33 32.78020 -114.19122 35810 ft 338 kts 265°
2026-04-26 03:33 32.78203 -114.24710 35815 ft 339 kts 265°
2026-04-26 03:34 32.78417 -114.30309 35868 ft 339 kts 266°
2026-04-26 03:34 32.78632 -114.35858 35827 ft 338 kts 266°
2026-04-26 03:35 32.79500 -114.41435 35815 ft 352 kts 278°
2026-04-26 03:35 32.81037 -114.46956 35810 ft 353 kts 278°
2026-04-26 03:36 32.82574 -114.52504 35815 ft 354 kts 278°
2026-04-26 03:36 32.84103 -114.58071 35816 ft 354 kts 278°
2026-04-26 03:37 32.85642 -114.63673 35822 ft 354 kts 278°
2026-04-26 03:37 32.87164 -114.69234 35825 ft 354 kts 278°
2026-04-26 03:38 32.87892 -114.74854 35826 ft 337 kts 262°
2026-04-26 03:38 32.87743 -114.80503 35209 ft 346 kts 262°
2026-04-26 03:39 32.87682 -114.83355 34738 ft 338 kts 262°
2026-04-26 03:39 32.87632 -114.86094 34395 ft 324 kts 262°
2026-04-26 03:39 32.87588 -114.88704 34010 ft 311 kts 262°
2026-04-26 03:39 32.87539 -114.91257 33318 ft 306 kts 261°
2026-04-26 03:40 32.87481 -114.93769 32603 ft 303 kts 261°
2026-04-26 03:40 32.87421 -114.96259 31919 ft 299 kts 261°
2026-04-26 03:40 32.87363 -114.98721 31265 ft 296 kts 261°
2026-04-26 03:40 32.87307 -115.01157 30651 ft 293 kts 261°
2026-04-26 03:41 32.87251 -115.03548 30352 ft 285 kts 261°
2026-04-26 03:41 32.87199 -115.05872 30309 ft 279 kts 261°
2026-04-26 03:41 32.87139 -115.08200 30260 ft 283 kts 261°
2026-04-26 03:41 32.87077 -115.10540 30193 ft 284 kts 261°
2026-04-26 03:42 32.87014 -115.12926 30137 ft 284 kts 261°
2026-04-26 03:42 32.86955 -115.15277 30077 ft 284 kts 261°
2026-04-26 03:42 32.86896 -115.17619 29885 ft 286 kts 261°
2026-04-26 03:42 32.86834 -115.20017 28968 ft 299 kts 261°
2026-04-26 03:43 32.86771 -115.22509 28360 ft 303 kts 261°
2026-04-26 03:43 32.86713 -115.25011 27904 ft 303 kts 261°
2026-04-26 03:43 32.86653 -115.27534 27481 ft 302 kts 261°
2026-04-26 03:43 32.86590 -115.30031 27077 ft 300 kts 261°
2026-04-26 03:44 32.86529 -115.32501 26674 ft 299 kts 261°
2026-04-26 03:44 32.86375 -115.34947 26399 ft 291 kts 255°
2026-04-26 03:44 32.86041 -115.37307 26053 ft 288 kts 255°
2026-04-26 03:44 32.85825 -115.38849 25797 ft 287 kts 255°
2026-04-26 03:45 32.85495 -115.41188 25391 ft 285 kts 255°
2026-04-26 03:45 32.85170 -115.43505 24989 ft 284 kts 255°
2026-04-26 03:45 32.84845 -115.45815 24589 ft 283 kts 255°
2026-04-26 03:45 32.84522 -115.48120 24163 ft 282 kts 255°
2026-04-26 03:46 32.84186 -115.50415 23771 ft 281 kts 254°
2026-04-26 03:46 32.83824 -115.52684 23381 ft 279 kts 253°
2026-04-26 03:46 32.83449 -115.54951 22906 ft 278 kts 253°
2026-04-26 03:47 32.82687 -115.59474 21996 ft 277 kts 253°
2026-04-26 03:47 32.82306 -115.61716 21550 ft 276 kts 253°
2026-04-26 03:47 32.81926 -115.63943 21187 ft 275 kts 253°
2026-04-26 03:47 32.81540 -115.66175 20749 ft 275 kts 253°
2026-04-26 03:48 32.81149 -115.68403 20315 ft 275 kts 253°
2026-04-26 03:48 32.80756 -115.70632 19893 ft 275 kts 253°
2026-04-26 03:48 32.80358 -115.72886 19476 ft 275 kts 253°
2026-04-26 03:48 32.79970 -115.75079 19080 ft 275 kts 253°
2026-04-26 03:49 32.79571 -115.77322 18678 ft 274 kts 253°
2026-04-26 03:49 32.79174 -115.79547 18279 ft 274 kts 253°
2026-04-26 03:49 32.78778 -115.81760 17856 ft 274 kts 253°
2026-04-26 03:49 32.78383 -115.83974 17430 ft 273 kts 253°
2026-04-26 03:50 32.78044 -115.86190 17006 ft 276 kts 261°
2026-04-26 03:50 32.78118 -115.88497 16594 ft 280 kts 268°
2026-04-26 03:50 32.78256 -115.90793 16200 ft 277 kts 263°
2026-04-26 03:50 32.78162 -115.93060 15810 ft 273 kts 258°
2026-04-26 03:51 32.77953 -115.95298 15406 ft 272 kts 259°
2026-04-26 03:51 32.77721 -115.97522 15010 ft 272 kts 258°
2026-04-26 03:51 32.77521 -115.99762 14636 ft 272 kts 259°
2026-04-26 03:51 32.77343 -116.01996 14388 ft 272 kts 259°
2026-04-26 03:52 32.77170 -116.04238 14149 ft 272 kts 259°
2026-04-26 03:52 32.76994 -116.06531 13907 ft 272 kts 259°
2026-04-26 03:52 32.76817 -116.08779 13670 ft 272 kts 259°
2026-04-26 03:52 32.76639 -116.11014 13410 ft 272 kts 259°
2026-04-26 03:53 32.76457 -116.13253 13148 ft 271 kts 259°
2026-04-26 03:53 32.76275 -116.15466 12914 ft 269 kts 259°
2026-04-26 03:53 32.76095 -116.17679 12647 ft 268 kts 259°
2026-04-26 03:53 32.75921 -116.19847 12402 ft 267 kts 259°
2026-04-26 03:54 32.75742 -116.22064 12144 ft 265 kts 259°
2026-04-26 03:54 32.75565 -116.24251 11893 ft 266 kts 259°
2026-04-26 03:54 32.75385 -116.26424 11912 ft 264 kts 260°
2026-04-26 03:54 32.75210 -116.28554 11896 ft 259 kts 260°
2026-04-26 03:55 32.75037 -116.30698 11682 ft 258 kts 260°
2026-04-26 03:55 32.74871 -116.32842 11432 ft 256 kts 260°
2026-04-26 03:55 32.74708 -116.34942 11182 ft 255 kts 260°
2026-04-26 03:55 32.74546 -116.37025 10937 ft 253 kts 260°
2026-04-26 03:56 32.74384 -116.39102 10722 ft 252 kts 260°
2026-04-26 03:56 32.74225 -116.41168 10478 ft 250 kts 260°
2026-04-26 03:56 32.74066 -116.43225 10234 ft 249 kts 260°
2026-04-26 03:56 32.73906 -116.45272 10000 ft 248 kts 260°
2026-04-26 03:57 32.73746 -116.47298 9912 ft 246 kts 260°
2026-04-26 03:57 32.73585 -116.49334 9916 ft 248 kts 260°
2026-04-26 03:57 32.73420 -116.51366 9885 ft 248 kts 259°
2026-04-26 03:57 32.73231 -116.53395 9760 ft 247 kts 259°
2026-04-26 03:58 32.73030 -116.55417 9617 ft 246 kts 259°
2026-04-26 03:58 32.72824 -116.57444 9479 ft 249 kts 260°
2026-04-26 03:58 32.72615 -116.59504 9346 ft 253 kts 260°
2026-04-26 03:58 32.72408 -116.61579 9104 ft 253 kts 261°
2026-04-26 03:59 32.72207 -116.63643 8815 ft 252 kts 261°
2026-04-26 03:59 32.72009 -116.65713 8497 ft 252 kts 262°
2026-04-26 03:59 32.71826 -116.67791 8171 ft 252 kts 263°
2026-04-26 03:59 32.71665 -116.69864 7852 ft 252 kts 263°
2026-04-26 04:00 32.71511 -116.71919 7533 ft 250 kts 263°
2026-04-26 04:00 32.71357 -116.73980 7213 ft 250 kts 264°
2026-04-26 04:00 32.71200 -116.76035 6894 ft 249 kts 265°
2026-04-26 04:00 32.71040 -116.78080 6581 ft 249 kts 265°
2026-04-26 04:01 32.70878 -116.80128 6258 ft 250 kts 265°
2026-04-26 04:01 32.70621 -116.82163 5995 ft 245 kts 253°
2026-04-26 04:01 32.70047 -116.84022 5734 ft 232 kts 251°
2026-04-26 04:01 32.69494 -116.85783 5406 ft 223 kts 251°
2026-04-26 04:02 32.68968 -116.87471 5125 ft 212 kts 251°
2026-04-26 04:02 32.68477 -116.89075 4902 ft 201 kts 251°
2026-04-26 04:02 32.68029 -116.90595 4667 ft 192 kts 251°
2026-04-26 04:02 32.67593 -116.92085 4438 ft 190 kts 252°
2026-04-26 04:03 32.67366 -116.93616 4224 ft 189 kts 269°
2026-04-26 04:03 32.67542 -116.95160 4010 ft 190 kts 286°
2026-04-26 04:03 32.67922 -116.96659 3800 ft 186 kts 285°
2026-04-26 04:03 32.68273 -116.98085 3591 ft 171 kts 285°
2026-04-26 04:04 32.68586 -116.99359 3386 ft 158 kts 284°
2026-04-26 04:04 32.68885 -117.00584 3187 ft 151 kts 284°
2026-04-26 04:04 32.69174 -117.01766 3010 ft 148 kts 283°
2026-04-26 04:04 32.69458 -117.02931 2855 ft 145 kts 283°
2026-04-26 04:05 32.69736 -117.04067 2688 ft 141 kts 284°
2026-04-26 04:05 32.70010 -117.05190 2515 ft 139 kts 284°
2026-04-26 04:05 32.70273 -117.06273 2328 ft 137 kts 284°
2026-04-26 04:05 32.70541 -117.07373 2142 ft 137 kts 284°
2026-04-26 04:06 32.70807 -117.08460 2053 ft 137 kts 284°
2026-04-26 04:06 32.71074 -117.09559 1980 ft 139 kts 284°
2026-04-26 04:06 32.71340 -117.10655 1760 ft 138 kts 285°
2026-04-26 04:06 32.71625 -117.11745 1488 ft 136 kts 285°
2026-04-26 04:07 32.71913 -117.12819 1233 ft 137 kts 285°
2026-04-26 04:07 32.72196 -117.13898 905 ft 137 kts 285°
2026-04-26 04:07 32.72467 -117.14989 638 ft 138 kts 283°
2026-04-26 04:07 32.72722 -117.16079 469 ft 137 kts 282°
2026-04-26 04:08 32.72962 -117.17186 222 ft 141 kts 283°
2026-04-26 04:08 32.73204 -117.18279 47 ft 128 kts 284°
2026-04-26 04:08 32.73402 -117.19125 24 ft 56 kts 287°
2026-04-26 04:08 32.73451 -117.19354 26 ft 20 kts 277°
2026-04-26 04:09 32.73419 -117.19514 27 ft 20 kts 251°
2026-04-26 04:09 32.73409 -117.19549 27 ft 1 kts 252°
2026-04-26 04:10 32.73409 -117.19550 27 ft 1 kts 252°
2026-04-26 04:10 32.73409 -117.19602 27 ft 15 kts 281°
2026-04-26 04:10 32.73451 -117.19777 27 ft 18 kts 288°
2026-04-26 04:10 32.73482 -117.19914 27 ft 10 kts 283°
2026-04-26 04:11 32.73504 -117.20005 29 ft 13 kts 286°
2026-04-26 04:11 32.73533 -117.20122 25 ft 16 kts 286°
2026-04-26 04:11 32.73530 -117.20221 27 ft 12 kts 230°
2026-04-26 04:11 32.73484 -117.20294 25 ft 10 kts 238°
2026-04-26 04:12 32.73454 -117.20342 24 ft 0 kts 230°
2026-04-26 04:12 32.73452 -117.20344 23 ft 1 kts 230°
2026-04-26 04:12 32.73451 -117.20346 23 ft 0 kts 230°